Location: ??
(35.4824°N, 139.4679°E)
Time: 20:56:31
(UTC+00:00)

CZ-4B R/B - Pass Details

Date: 29 October 2020
Orbit: 496 x 647 km, 97.8° (Epoch: 24 November)

Event Time Altitude Azimuth Distance (km) Brightness Sun altitude
Rises 19:20:58 0° 14° (NNE) 2,821 7.6 -21.1°
Reaches altitude 10° 19:23:11 10° 16° (NNE) 1,891 6.7 -20.6°
Maximum altitude 19:27:16 74° 101° (E) 581 4.0 -19.8°
Drops below altitude 10° 19:31:08 10° 187° (S) 1,788 6.4 -19.0°
Sets 19:33:11 0° 189° (S) 2,652 7.3 -18.6°
